Regional Weather Roundup
Issued by NWS Charleston, WV

Home | Current Version | Previous Version | Graphics & Text | Print | Product List | Glossary On
Versions: 1 2 3 4 5 6 7 8 9 10 11 12 13 14 15 16 17 18 19 20 21 22 23 24 25 26 27 28 29 30 31 32 33 34 35 36 37 38 39 40 41 42 43 44 45 46 47 48 49 50
000
ASUS41 KRLX 101010
RWRRLX
CRWRWRRLX ALL
West Virginia Regional Weather Roundup
National Weather Service Charleston WV
Issued by National Weather Service Pittsburgh PA
500 AM EST SAT DEC 10 2016

Note: "fair" indicates few or no clouds below 12,000 feet with no
significant weather and/or obstructions to visibility.

WVZ003-101100-
Northern Panhandle of West Virginia

CITY           SKY/WX    TMP DP  RH WIND       PRES   REMARKS
WHEELING       CLOUDY    22  17  81 W10       30.45R WCI  11
$$

WVZ009-101100-
Northwest West Virginia

CITY           SKY/WX    TMP DP  RH WIND       PRES   REMARKS
PARKERSBURG    FLURRIES  23  14  68 W6        30.55R WCI  16
$$

WVZ006-101100-
Western West Virginia

CITY           SKY/WX    TMP DP  RH WIND       PRES   REMARKS
HUNTINGTON     CLOUDY    23  12  62 S5        30.54S WCI  17
$$

WVZ015-101100-
West Central West Virginia

CITY           SKY/WX    TMP DP  RH WIND       PRES   REMARKS
CHARLESTON     CLOUDY    23  12  62 SW9       30.53S WCI  13
$$

WVZ031-101100-
North Central West Virginia

CITY           SKY/WX    TMP DP  RH WIND       PRES   REMARKS
CLARKSBURG     CLOUDY    22  15  75 SW10      30.48R WCI  11
MORGANTOWN     CLOUDY    23  14  68 SW7       30.46R WCI  15
$$

WVZ035-042-101100-
South Central West Virginia

CITY           SKY/WX    TMP DP  RH WIND       PRES   REMARKS
BECKLEY        CLOUDY    17  10  74 W10       30.41S WCI   5
BLUEFIELD      CLEAR     13   9  84 W7        30.38S WCI   3
$$

WVZ045-101100-
Greenbrier Valley of West Virginia

CITY           SKY/WX    TMP DP  RH WIND       PRES   REMARKS
LEWISBURG      CLOUDY    18  10  70 CALM      30.41S
$$

WVZ047-101100-
Northern Mountains of West Virginia

CITY           SKY/WX    TMP DP  RH WIND       PRES   REMARKS
ELKINS         FLURRIES  20  12  71 W7        30.42R WCI  11
$$

WVZ052-101100-
Eastern Panhandle of West Virginia

CITY           SKY/WX    TMP DP  RH WIND       PRES   REMARKS
MARTINSBURG    CLOUDY    28  15  58 W7        30.44R WCI  21
PETERSBURG     CLOUDY    27  15  59 SW5       30.47R WCI  22
$$




USA.gov is the U.S. government's official web portal to all federal, state and local government web resources and services.